Location: RyutenAO
(34.8939°N, 134.0022°E)
Time: 05:07:48
(UTC+09:00)

N. Korean satellite - Pass Details

Date: 01 December 2022
Orbit: 407 x 442 km, 97.3° (Epoch: 05 February)

Event Time Altitude Azimuth Distance (km) Brightness Sun altitude
Rises 05:04:42 0° 16° (NNE) 2,517 10.2 -21.7°
Reaches altitude 10° 05:06:48 10° 20° (NNE) 1,631 9.3 -21.3°
Maximum altitude 05:10:15 56° 100° (E) 558 7.1 -20.6°
Drops below altitude 10° 05:13:38 10° 179° (S) 1,596 9.3 -20.0°
Sets 05:15:40 0° 184° (S) 2,455 10.3 -19.6°
